Regional Weather Roundup
Issued by NWS Northern Indiana

Home | Current Version | Previous Version | Graphics & Text | Print | Product List | Glossary On
Versions: 1 2 3 4 5 6 7 8 9 10 11 12 13 14 15 16 17 18 19 20 21 22 23 24 25 26 27 28 29 30 31 32 33 34 35 36 37 38 39 40 41 42 43 44 45 46 47 48 49 50
000
ASUS43 KIWX 211810
RWRIWX

KIWX WEATHER ROUNDUP
NATIONAL WEATHER SERVICE NORTHERN INDIANA
200 PM EDT THU AUG 21 2014

NOTE: "FAIR" INDICATES FEW OR NO CLOUDS BELOW 12,000 FEET WITH NO
SIGNIFICANT WEATHER AND/OR OBSTRUCTIONS TO VISIBILITY.

* THESE STATIONS ARE NOT UNDER NWS QUALITY CONTROL. THEY ALSO MAY NOT
  REPORT WEATHER SUCH AS PRECIPITATION OR FOG.

INZ001>027-211900-
NORTHERN INDIANA

CITY           SKY/WX    TMP DP  RH WIND       PRES   REMARKS
GARY*          CLOUDY    79  73  83 SW12      29.97R
VALPARAISO     CLOUDY    77  71  82 S9        29.98S
6HR MIN TEMP:  69; 6HR MAX TEMP:  77; 6HR PCP:  0.28;

MICHIGAN CITY* CLOUDY    75  72  88 S6        29.99R
LAPORTE*       CLOUDY    75  74  95 SW7       29.99S
6HR MIN TEMP:  68; 6HR MAX TEMP:  75; 6HR PCP:  0.16;

KNOX*          CLOUDY    75  71  87 S7        29.98S
6HR MIN TEMP:  41; 6HR MAX TEMP:  86;

SOUTH BEND     CLOUDY    76  69  79 SW8       30.00R
6HR MIN TEMP:  71; 6HR MAX TEMP:  77;

ELKHART*       CLOUDY    77  70  78 SW8       30.00R
GOSHEN         CLOUDY    76  70  82 S13       30.00R
6HR MIN TEMP:  71; 6HR MAX TEMP:  77; 6HR PCP: TRACE;

MONTICELLO*    CLOUDY    78  73  84 S8        29.98F
6HR MIN TEMP:  70; 6HR MAX TEMP:  78; 6HR PCP:  0.02;

LOGANSPORT*    CLOUDY    77  70  78 S13       30.01F
ROCHESTER*     CLOUDY    79  72  78 S9G16     30.00F
WARSAW*        CLOUDY    73  72  94 SW6       30.00S
ANGOLA*        MOSUNNY   79  70  73 S8        29.99S
FORT WAYNE     CLOUDY    72  70  93 S10       30.01S
6HR MIN TEMP:  71; 6HR MAX TEMP:  74; 6HR PCP:  0.20;

HUNTINGTON*    CLOUDY    71  70  96 S5        30.00F
6HR MIN TEMP:  69; 6HR MAX TEMP:  71; 6HR PCP:  0.32;

PERU/GRISSOM   CLOUDY    77  77 100 S17       30.01F
6HR MIN TEMP:  70; 6HR MAX TEMP:  77; 6HR PCP:  1.41;

MARION*        CLOUDY    72  71  98 S13       30.03F
6HR MIN TEMP:  40; 6HR MAX TEMP:  87; 6HR PCP:  1.71;


$$
INZ028>050-211900-
CENTRAL INDIANA

CITY           SKY/WX    TMP DP  RH WIND       PRES   REMARKS
LAFAYETTE      CLOUDY    81  72  74 S9        29.99F
6HR MIN TEMP:  70; 6HR MAX TEMP:  81; 6HR PCP:  0.10;

KOKOMO*        CLOUDY    73  70  88 S14       30.02F
6HR MIN TEMP:  70; 6HR MAX TEMP:  73; 6HR PCP:  1.64;

MUNCIE*        RAIN      72  68  87 S8        30.05F FOG
6HR MIN TEMP:  69; 6HR MAX TEMP:  73; 6HR PCP:  2.69;

INDIANAPOLIS   PTSUNNY   82  71  69 SW6       30.04F
6HR MIN TEMP:  70; 6HR MAX TEMP:  82; 6HR PCP:  0.07;


$$
MIZ043>046-050>051-056>058-064>065-071>073-077>080-211900-
SOUTHWEST LOWER MICHIGAN

CITY           SKY/WX    TMP DP  RH WIND       PRES   REMARKS
BATTLE CREEK   CLOUDY    80  68  66 SW3       29.97F
6HR MIN TEMP:  69; 6HR MAX TEMP:  81;

BENTON HARBOR  CLOUDY    79  70  74 VRB6      29.97R
6HR MIN TEMP:  70; 6HR MAX TEMP:  80;

COLDWATER*     CLOUDY    80  69  68 CALM      29.97F
6HR MIN TEMP:  69; 6HR MAX TEMP:  81;

HILLSDALE*     CLOUDY    80  69  68 CALM      29.98F
HOLLAND        CLOUDY    81  71  71 VRB5      29.96R
6HR MIN TEMP:  69; 6HR MAX TEMP:  81;

GRAND RAPIDS   CLOUDY    79  72  79 E5        29.96F
6HR MIN TEMP:  66; 6HR MAX TEMP:  79;

KALAMAZOO      PTSUNNY   82  68  62 S6        29.96F
6HR MIN TEMP:  70; 6HR MAX TEMP:  82;

STURGIS*       CLOUDY    75  72  88 S7        29.99R
THREE RIVERS*  PTSUNNY   78  71  77 S7        29.98R
6HR MIN TEMP:  70; 6HR MAX TEMP:  79;


$$
OHZ001>008-015>018-024>025-211900-
NORTHWEST OHIO

CITY           SKY/WX    TMP DP  RH WIND       PRES   REMARKS
WAUSEON*       FAIR      79  70  73 SW6       29.99F
DEFIANCE       CLOUDY    77  70  79 S8        29.99F
6HR MIN TEMP:  69; 6HR MAX TEMP:  78; 6HR PCP: TRACE;

FINDLAY        CLOUDY    74  69  85 SW13      30.01F
6HR MIN TEMP:  70; 6HR MAX TEMP:  79; 6HR PCP:  0.08;

TOLEDO EXPRESS CLOUDY    80  68  66 SW8       29.98
6HR MIN TEMP:  66; 6HR MAX TEMP:  80;

TOLEDO METCALF CLOUDY    81  67  62 SW13      30.00F
6HR MIN TEMP:  69; 6HR MAX TEMP:  81;

LIMA           CLOUDY    74  70  87 SW12      30.05F
6HR MIN TEMP:  71; 6HR MAX TEMP:  76; 6HR PCP:  1.00;


$$
&&


USA.gov is the U.S. government's official web portal to all federal, state and local government web resources and services.